[Date Prev][Date Next][Thread Prev][Thread Next] - [Date Index][Thread Index][Author Index]
2 Line ISS Keps 11-30
- Subject: [sarex] 2 Line ISS Keps 11-30
- From: "Dave Larsen PhD" <doc@xxxxxxxxxxx>
- Date: Tue, 29 Nov 2005 18:30:28 -0800
ISS
1 25544U 98067A 05333.84023876 .00010277 00000-0 79424-4 0 8505
2 25544 051.6431 131.9075 0008645 344.4147 172.9812 15.72568666401757
----
Via the sarex mailing list at AMSAT.ORG courtesy of AMSAT-NA.
To unsubscribe, send "unsubscribe sarex" to Majordomo@amsat.org
AMSAT Home